[[{"header":{"parameterUnit":"m.s-1","parameterCategory":1,"la1":30.2991,"la2":30.254,"lo1":-89.0895,"lo2":-89.0444,"dy":0.0017,"dx":0.0017,"nx":28,"ny":28,"refTime":"2024-10-02T09:00:00:Z","depth":0,"parameterNumber":2,"parameterNumberName":"U-component_of_WINDS"},"data":[0,0,0,0,0,0,0,0,0,0,0,0,0,0,0,0,0,0,0,0,0,0,0,0,0,0,0,0,0,0,0,0,0,0,0,0,0,0,0,0,0,0,0,0,0,0,0,0,0,0,0,0,0,0,0,0,0,0,0.5853,0.5853,0,0.5869,0.5869,0.587,0.5913,0.5914,0.5915,0.5916,0.593,0.5929,0.5929,0,0,0,0,0,0,0,0,0,0,0,0,0,0.5857,0.5857,0.5853,0.5853,0.5854,0.5869,0.5869,0.587,0.5913,0.5914,0.5915,0.5917,0.593,0.5929,0.5929,0,0,0,0,0,0,0,0,0,0,0,0,0,0.5862,0.5857,0.5853,0.5877,0.588,0.5869,0.5869,0.587,0.5913,0.5914,0.5916,0.5917,0.593,0.5929,0.5929,0.5895,0,0,0.5926,0.5926,0,0,0,0,0,0,0,0,0.5862,0.5862,0.5873,0.5876,0.5878,0.5891,0.5876,0.5878,0.5913,0.59,0.5916,0.5918,0.5915,0.5916,0.5916,0.5896,0.5897,0.5926,0.5926,0.5925,0.5925,0,0,0,0,0,0,0,0.5862,0.5862,0.5859,0.5874,0.5876,0.5886,0.5889,0.5876,0.5899,0.5901,0.5905,0.5906,0.5917,0.5916,0.5916,0.5897,0.5926,0.5926,0.5925,0.5925,0.5848,0.5847,0,0,0,0,0,0,0.5858,0.5861,0.5859,0.586,0.5874,0.5885,0.5888,0.5885,0.59,0.5903,0.5905,0.5908,0.5917,0.5917,0.5917,0.5877,0.5925,0.5925,0.5924,0.585,0.5848,0.5846,0,0,0,0,0,0,0.5858,0.5858,0.5858,0.5861,0.5862,0.5883,0.588,0.5885,0.5884,0.5902,0.5906,0.59,0.5918,0.5918,0.59,0.5878,0.5924,0.5924,0.5852,0.5849,0.5847,0.5798,0,0,0,0,0,0,0.5858,0.5857,0.5846,0.5861,0.5862,0.5842,0.5879,0.5884,0.5883,0.5887,0.5899,0.5902,0.5919,0.5901,0.5899,0.5878,0.5923,0.5854,0.5851,0.5848,0.5802,0.5795,0.5788,0,0,0,0,0,0.5858,0.5831,0.5845,0.5844,0.5848,0.5841,0.5841,0.5862,0.5881,0.5869,0.588,0.5902,0.5882,0.5899,0.5897,0.5875,0.5855,0.5851,0.5848,0.5805,0.5796,0.5788,0,0,0,0,0,0,0.5812,0.5833,0.5849,0.5826,0.5831,0.5848,0.5833,0.5852,0.5851,0.5855,0.588,0.5882,0.586,0.5866,0.5885,0.5843,0.5872,0.5868,0.5839,0.5831,0.5824,0.5822,0.5922,0,0,0,0,0,0.5799,0.5792,0.5811,0.5789,0.5791,0.5812,0.5809,0.5825,0.5831,0.5833,0.5843,0.5847,0.5841,0.5837,0.5833,0.5804,0.5806,0.5788,0.5781,0.5775,0.5771,0.5754,0.5745,0.5835,0.5835,0.5835,0,0,0.5772,0.5783,0.5777,0.578,0.5786,0.5777,0.5813,0.5803,0.5795,0.5831,0.5814,0.5822,0.5828,0.5803,0.5793,0.5808,0.5747,0.5771,0.5766,0.5765,0.5749,0.5741,0.5733,0.5832,0.5833,0.5833,0,0,0.5719,0.5727,0.5709,0.5714,0.5723,0.5737,0.5732,0.5746,0.5752,0.5736,0.5762,0.5754,0.5744,0.5747,0.5747,0.5694,0.5713,0.5692,0.5655,0.5638,0.5631,0.5625,0.5604,0.5596,0.5688,0.5688,0.5688,0,0.5684,0.5673,0.5697,0.5685,0.5684,0.5717,0.5698,0.5701,0.5707,0.5706,0.5723,0.571,0.5717,0.5692,0.5679,0.5679,0.5673,0.569,0.5631,0.5625,0.5619,0.5599,0.5591,0.5685,0.5685,0.5686,0.5686,0,0.5629,0.562,0.5604,0.561,0.5608,0.5592,0.5613,0.5608,0.5624,0.5635,0.5618,0.5627,0.5624,0.562,0.5635,0.5597,0.5606,0.5626,0.5655,0.5607,0.5589,0.5582,0.5681,0.5682,0.5683,0.5683,0,0,0.5545,0.5565,0.5558,0.556,0.5572,0.5565,0.5551,0.5549,0.5543,0.5546,0.5533,0.5524,0.5543,0.5543,0.5559,0.5544,0.5498,0.5566,0.5566,0.5551,0.5454,0.5437,0.5428,0.5512,0.5511,0.5509,0.5453,0,0.5493,0.5469,0.549,0.5462,0.5453,0.5484,0.5471,0.5476,0.5486,0.5479,0.5491,0.5483,0.5509,0.5509,0.5496,0.5506,0.5479,0.5511,0.5497,0.5497,0.5493,0.5418,0.5401,0.5347,0.5446,0.5445,0.5444,0,0.5428,0.5429,0.5399,0.5412,0.5409,0.5397,0.5396,0.539,0.5396,0.5404,0.5404,0.5423,0.5408,0.5438,0.5416,0.5437,0.5433,0.5437,0.5436,0.5433,0.5466,0.5412,0.533,0.5321,0.5433,0.5434,0.5435,0,0.5367,0.5361,0.5342,0.5344,0.5358,0.5348,0.5354,0.5361,0.5358,0.5358,0.5356,0.5353,0.5351,0.5348,0.5365,0.5386,0.534,0.5372,0.5344,0.5344,0.5331,0.5331,0.5245,0.5333,0.5333,0.5333,0.5333,0,0.5305,0.5285,0.5315,0.5303,0.5281,0.5306,0.5283,0.5292,0.5298,0.5287,0.5314,0.5303,0.5328,0.5319,0.5333,0.5311,0.5311,0.5315,0.5319,0.5312,0.5311,0.5308,0.5311,0.5331,0.5331,0.5332,0.5332,0,0.5233,0.5252,0.5233,0.5249,0.5252,0.5235,0.5248,0.5236,0.5249,0.5235,0.5233,0.5251,0.5242,0.526,0.5254,0.5263,0.5231,0.5242,0.5229,0.5231,0.5202,0.5203,0.5109,0.5097,0.5194,0.5193,0.5192,0,0.5191,0.5176,0.519,0.5185,0.5189,0.5181,0.5179,0.5202,0.5198,0.5203,0.519,0.5184,0.5179,0.5163,0.5175,0.517,0.5179,0.5146,0.5178,0.517,0.5175,0.5175,0.5172,0.5138,0.5137,0.5136,0.5136,0,0.5113,0.5123,0.5119,0.5117,0.5113,0.5113,0.5115,0.5109,0.5134,0.5127,0.5119,0.5116,0.5109,0.5101,0.5098,0.5102,0.5122,0.5126,0.5119,0.511,0.5102,0.5103,0.5209,0.5127,0.5128,0.5129,0.5129,0.513,0.5053,0.5041,0.5049,0.5042,0.5046,0.5047,0.5037,0.5048,0.5041,0.5038,0.5052,0.504,0.5044,0.5043,0.5045,0.5034,0.5049,0.5039,0.5036,0.5033,0.5027,0.5106,0.5034,0.5034,0.5035,0.5035,0.5035,0,0.4975,0.4981,0.4976,0.4977,0.4972,0.4993,0.4995,0.4989,0.4978,0.4981,0.4976,0.4965,0.4958,0.4969,0.4963,0.4952,0.4961,0.495,0.4949,0.4949,0.5016,0.5021,0.4942,0.4942,0.4942,0.4942,0.4942,0.4942,0.4933,0.4913,0.4924,0.4906,0.4912,0.4901,0.49,0.49,0.4903,0.489,0.4884,0.4892,0.4898,0.4892,0.4885,0.4889,0.4884,0.4869,0.4875,0.4936,0.4945,0.4954,0.4959,0.4868,0.4868,0.4809,0.4809,0.4808]},{"header":{"parameterUnit":"m.s-1","parameterCategory":1,"la1":30.2991,"la2":30.254,"lo1":-89.0895,"lo2":-89.0444,"dy":0.0017,"dx":0.0017,"nx":28,"ny":28,"refTime":"2024-10-02T09:00:00:Z","depth":0,"parameterNumber":3,"parameterNumberName":"V-component_of_WINDS"},"data":[0,0,0,0,0,0,0,0,0,0,0,0,0,0,0,0,0,0,0,0,0,0,0,0,0,0,0,0,0,0,0,0,0,0,0,0,0,0,0,0,0,0,0,0,0,0,0,0,0,0,0,0,0,0,0,0,0,0,0.7951,0.7951,0,0.7931,0.7931,0.793,0.792,0.792,0.792,0.792,0.7899,0.7898,0.7898,0,0,0,0,0,0,0,0,0,0,0,0,0,0.7978,0.7978,0.7951,0.795,0.795,0.7931,0.7931,0.793,0.792,0.792,0.792,0.792,0.7899,0.7898,0.7898,0,0,0,0,0,0,0,0,0,0,0,0,0,0.7963,0.7978,0.7951,0.7943,0.7942,0.7931,0.7931,0.793,0.792,0.792,0.792,0.792,0.7899,0.7898,0.7898,0.7893,0,0,0.7895,0.7895,0,0,0,0,0,0,0,0,0.7964,0.7962,0.7944,0.7943,0.7942,0.7928,0.7933,0.7918,0.792,0.7928,0.792,0.792,0.7908,0.7907,0.7903,0.7892,0.7891,0.7895,0.7894,0.7894,0.7894,0,0,0,0,0,0,0,0.7965,0.7963,0.7943,0.7944,0.7943,0.794,0.7938,0.793,0.7919,0.7928,0.7927,0.7925,0.7908,0.7904,0.7903,0.789,0.7895,0.7894,0.7894,0.7893,0.7873,0.7873,0,0,0,0,0,0,0.7968,0.7964,0.7943,0.7942,0.7953,0.7939,0.7937,0.7933,0.7919,0.7917,0.7925,0.7924,0.7905,0.7904,0.7902,0.7895,0.7894,0.7893,0.7893,0.7873,0.7873,0.7873,0,0,0,0,0,0,0.7968,0.7966,0.7944,0.7953,0.795,0.7939,0.7934,0.7932,0.7928,0.7917,0.7914,0.7923,0.7905,0.7903,0.7895,0.7894,0.7893,0.7892,0.7873,0.7873,0.7873,0.7881,0,0,0,0,0,0,0.7969,0.7966,0.7965,0.7953,0.7949,0.7938,0.7934,0.7932,0.7927,0.7926,0.7914,0.7912,0.7905,0.7896,0.7894,0.7893,0.7892,0.7873,0.7873,0.7873,0.788,0.7881,0.7881,0,0,0,0,0,0.797,0.7968,0.7965,0.7962,0.7947,0.7938,0.7936,0.7928,0.7927,0.7925,0.7917,0.7913,0.7894,0.7895,0.7893,0.7891,0.7873,0.7873,0.7873,0.788,0.7881,0.7881,0,0,0,0,0,0,0.7979,0.7966,0.7963,0.7956,0.7948,0.7936,0.7934,0.7929,0.7922,0.7921,0.7911,0.7909,0.7901,0.7895,0.7897,0.7885,0.7883,0.7883,0.7889,0.789,0.789,0.7892,0.7891,0,0,0,0,0,0.7981,0.7975,0.7963,0.7959,0.7955,0.7945,0.7941,0.7935,0.7927,0.7923,0.7915,0.7907,0.7899,0.7894,0.7886,0.7879,0.7876,0.7877,0.7877,0.7878,0.7877,0.7872,0.7872,0.7873,0.7873,0.7873,0,0,0.7983,0.7975,0.7972,0.796,0.7954,0.7947,0.7942,0.7936,0.7931,0.7922,0.7914,0.7908,0.7898,0.789,0.7886,0.7885,0.7876,0.7878,0.7878,0.7877,0.7872,0.7872,0.7872,0.7873,0.7873,0.7873,0,0,0.7985,0.7978,0.7973,0.7967,0.7957,0.795,0.7949,0.7938,0.7933,0.7925,0.7918,0.7911,0.7899,0.7891,0.7886,0.7884,0.7879,0.7882,0.7883,0.7879,0.7879,0.7879,0.7877,0.7877,0.7881,0.7881,0.7881,0,0.7989,0.7979,0.7971,0.7965,0.796,0.7952,0.7947,0.794,0.7928,0.7925,0.7923,0.7906,0.7899,0.7889,0.7888,0.7885,0.7882,0.7883,0.7879,0.7879,0.7879,0.7878,0.7877,0.7882,0.7881,0.7881,0.7881,0,0.7985,0.7978,0.7976,0.7964,0.7959,0.7953,0.7943,0.7938,0.7933,0.7927,0.7918,0.7909,0.7899,0.7896,0.7891,0.7885,0.7884,0.7881,0.7879,0.7879,0.7878,0.7877,0.7882,0.7882,0.7882,0.7882,0,0,0.7992,0.7976,0.7975,0.7969,0.7957,0.7952,0.7945,0.7935,0.7931,0.7923,0.7917,0.7906,0.7903,0.7897,0.7891,0.7887,0.7884,0.7884,0.7883,0.7884,0.7877,0.7879,0.7878,0.7881,0.7881,0.7881,0.7877,0,0.7991,0.798,0.7972,0.7963,0.7956,0.7948,0.7943,0.7934,0.7928,0.7921,0.7913,0.7905,0.7902,0.7898,0.7894,0.7886,0.7883,0.7886,0.7875,0.7874,0.7877,0.7878,0.788,0.7877,0.7877,0.7877,0.7876,0,0.7989,0.7981,0.7972,0.796,0.7957,0.7952,0.7942,0.7935,0.7925,0.7921,0.7914,0.7907,0.79,0.7898,0.7886,0.7889,0.7884,0.7879,0.7878,0.7877,0.7875,0.7875,0.7876,0.7875,0.7876,0.7876,0.7876,0,0.7994,0.7981,0.7974,0.7969,0.7955,0.7952,0.7946,0.7936,0.793,0.7921,0.7917,0.7908,0.7902,0.7895,0.7886,0.7886,0.7875,0.7873,0.787,0.7871,0.7868,0.7869,0.7867,0.7866,0.7866,0.7866,0.7866,0,0.7994,0.7989,0.7976,0.7971,0.7964,0.7955,0.7948,0.7942,0.7933,0.7926,0.7919,0.7913,0.7901,0.7894,0.7886,0.7878,0.7875,0.7871,0.7869,0.7871,0.7872,0.7868,0.7868,0.7866,0.7866,0.7866,0.7866,0,0.7999,0.799,0.7981,0.7969,0.7965,0.7961,0.795,0.7945,0.7937,0.7929,0.7927,0.7915,0.7906,0.7896,0.7883,0.7878,0.7869,0.7867,0.7873,0.7872,0.787,0.787,0.7865,0.7864,0.7864,0.7864,0.7864,0,0.7999,0.7995,0.7982,0.7977,0.7971,0.7963,0.7957,0.7948,0.7942,0.793,0.7926,0.7916,0.7908,0.7893,0.7883,0.7873,0.787,0.7869,0.7868,0.787,0.7869,0.7869,0.7868,0.7869,0.7869,0.7869,0.7869,0,0.8001,0.7996,0.7988,0.7979,0.7972,0.7964,0.7956,0.7952,0.7941,0.7934,0.7925,0.7918,0.7905,0.7894,0.7883,0.7876,0.787,0.7869,0.7868,0.787,0.7874,0.7871,0.7873,0.787,0.787,0.787,0.7869,0.7869,0.8003,0.7998,0.7988,0.7979,0.7972,0.7964,0.7958,0.795,0.7942,0.7931,0.7926,0.7916,0.7905,0.7889,0.7882,0.7874,0.7872,0.7871,0.787,0.787,0.787,0.7875,0.7872,0.7872,0.7872,0.7872,0.7872,0,0.8003,0.7996,0.7988,0.7977,0.797,0.7965,0.7955,0.795,0.7941,0.7932,0.7923,0.7912,0.7902,0.7891,0.788,0.7875,0.7872,0.7873,0.7873,0.7871,0.7872,0.7874,0.7875,0.7875,0.7875,0.7875,0.7875,0.7875,0.8003,0.7994,0.7989,0.7976,0.7969,0.796,0.7954,0.7947,0.7939,0.7927,0.7918,0.7912,0.7901,0.789,0.788,0.7877,0.7873,0.7874,0.787,0.7871,0.7871,0.7871,0.7873,0.7873,0.7873,0.7869,0.7869,0.7869]}]]